This is the latest recevied weather packets stored in our database for station/object W6MAF. If no packets are shown the sender has not sent any weather packets the latest 10 day(s).
| Time | Temp. | Humidity | Pressure | Rain* | Wind** | Luminosity | Snow |
|---|---|---|---|---|---|---|---|
| 1777319818 | 11.67° C | 35% | - | 0 mm | 4.92 m/s, 208° | - | - |
| 1777319520 | 11.67° C | 36% | - | 0 mm | 4.92 m/s, 203° | - | - |
| 1777319222 | 11.67° C | 35% | - | 0 mm | 7.6 m/s, 203° | - | - |
| 1777318924 | 11.67° C | 36% | - | 0 mm | 5.81 m/s, 208° | - | - |
| 1777318623 | 11.67° C | 36% | - | 0 mm | 5.81 m/s, 243° | - | - |
| 1777318326 | 11.67° C | 37% | - | 0 mm | 5.36 m/s, 222° | - | - |
| 1777318028 | 11.11° C | 38% | - | 0 mm | 5.36 m/s, 205° | - | - |
| 1777317775 | 11.67° C | 37% | - | 0 mm | 6.26 m/s, 201° | - | - |
| 1777317730 | 11.67° C | 37% | - | 0 mm | 6.26 m/s, 201° | - | - |
| 1777317433 | 11.67° C | 37% | - | 0 mm | 5.81 m/s, 210° | - | - |
| 1777317135 | 11.67° C | 37% | - | 0 mm | 4.02 m/s, 190° | - | - |
| 1777316834 | 11.11° C | 38% | - | 0 mm | 5.36 m/s, 203° | - | - |
| 1777316239 | 11.11° C | 40% | - | 0 mm | 4.92 m/s, 198° | - | - |
| 1777315948 | 10.56° C | 41% | - | 0 mm | 5.81 m/s, 214° | - | - |
| 1777315942 | 11.11° C | 39% | - | 0 mm | 6.71 m/s, 243° | - | - |
| 1777315644 | 10.56° C | 41% | - | 0 mm | 5.81 m/s, 214° | - | - |
| 1777315346 | 10.56° C | 41% | - | 0 mm | 4.47 m/s, 188° | - | - |
| 1777315045 | 10° C | 41% | - | 0 mm | 5.36 m/s, 203° | - | - |
| 1777314748 | 10° C | 42% | - | 0 mm | 4.92 m/s, 214° | - | - |
| 1777314450 | 10° C | 42% | - | 0 mm | 5.81 m/s, 188° | - | - |
| 1777314152 | 10° C | 43% | - | 0 mm | 6.71 m/s, 194° | - | - |
| 1777313855 | 10° C | 43% | - | 0 mm | 5.81 m/s, 193° | - | - |
| 1777313557 | 9.44° C | 44% | - | 0 mm | 5.81 m/s, 195° | - | - |
| 1777313256 | 9.44° C | 45% | - | 0 mm | 8.05 m/s, 225° | - | - |
| 1777312959 | 9.44° C | 46% | - | 0 mm | 7.6 m/s, 200° | - | - |
* Rain latest hour (hover to see other rain measurements)
** Current wind speed in m/s (hover to see current wind gust speed)